User: anonymous   Login
Location: Drocourt
(49.0571°N, 1.7669°E)
Time: 01:18:35
(UTC+00:00)
Language:

Cosmos 1869 - Orbit

View from above orbital plane
View from above orbital plane
View from above satellite
View from above satellite

Ground track
Ground track

The orbit data is extracted from the following two-line orbital elements,

1 18214U 87062A   23154.41115182  .00005777  00000-0  32312-3 0  9997
2 18214  82.5185 128.2344 0028899   3.7283 356.4157 15.12918366935549
Epoch (UTC): 03 June 2023 09:52:03
Eccentricity: 0.0028899
inclination: 82.5185°
perigee height: 507 km
apogee height: 547 km
right ascension of ascending node: 128.2344°
argument of perigee: 3.7283°
revolutions per day: 15.12918366
mean anomaly at epoch: 356.4157°
orbit number at epoch: 93554

The dashed part of the orbit path shows where the satellite is in the earth's shadow,  

DLR